"Sample Date","Sample Time","Sample Value","Units","Flow Rate","Number Channels","Micron Size 0","Counts/Channel 0","Micron Size 1","Counts/Channel 1","Micron Size 2","Counts/Channel 2","Micron Size 3","Counts/Channel 3","Micron Size 4","Counts/Channel 4","Micron Size 5","Counts/Channel 5","Micron Size 6","Counts/Channel 6","Micron Size 7","Counts/Channel 7","Micron Size 8","Counts/Channel 8","Micron Size 9","Counts/Channel 9","Micron Size 10","Counts/Channel 10","Micron Size 11","Counts/Channel 11","Micron Size 12","Counts/Channel 12","Micron Size 13","Counts/Channel 13","Micron Size 14","Counts/Channel 14","Micron Size 15","Counts/Channel 15","Micron Size 16","Counts/Channel 16","Micron Size 17","Counts/Channel 17","Micron Size 18","Counts/Channel 18","Micron Size 19","Counts/Channel 19","Micron Size 20","Counts/Channel 20","Micron Size 21","Counts/Channel 21","Micron Size 22","Counts/Channel 22","Micron Size 23","Counts/Channel 23","Micron Size 24","Counts/Channel 24","Micron Size 25","Counts/Channel 25","Micron Size 26","Counts/Channel 26","Micron Size 27","Counts/Channel 27","Micron Size 28","Counts/Channel 28","Micron Size 29","Counts/Channel 29","Micron Size 30","Counts/Channel 30","Micron Size 31","Counts/Channel 31"
"05/12/08","14:00:00",5061.000,"cc",28321.166,6,0.100,4162.000,0.200,805.000,0.300,81.000,0.500,10.000,1.000,3.000,5.000,0
"05/12/08","14:00:06",8721.000,"cc",28345.391,6,0.100,7196.000,0.200,1376.000,0.300,130.000,0.500,17.000,1.000,2.000,5.000,0
"05/12/08","14:00:12",6333.000,"cc",28341.031,6,0.100,5131.000,0.200,1074.000,0.300,102.000,0.500,24.000,1.000,2.000,5.000,0
"05/12/08","14:00:18",5232.000,"cc",28268.432,6,0.100,4250.000,0.200,882.000,0.300,84.000,0.500,13.000,1.000,3.000,5.000,0
"05/12/08","14:00:24",5532.000,"cc",28355.551,6,0.100,4492.000,0.200,942.000,0.300,86.000,0.500,10.000,1.000,2.000,5.000,0
"05/12/08","14:00:30",5983.000,"cc",28326.260,6,0.100,4932.000,0.200,957.000,0.300,78.000,0.500,12.000,1.000,4.000,5.000,0
"05/12/08","14:00:36",5960.000,"cc",28304.014,6,0.100,4887.000,0.200,962.000,0.300,101.000,0.500,9.000,1.000,1.000,5.000,0
"05/12/08","14:00:42",4481.000,"cc",28284.049,6,0.100,3656.000,0.200,737.000,0.300,73.000,0.500,13.000,1.000,2.000,5.000,0
"05/12/08","14:00:48",5041.000,"cc",28330.240,6,0.100,4032.000,0.200,924.000,0.300,77.000,0.500,6.000,1.000,2.000,5.000,0
"05/12/08","14:00:54",5992.000,"cc",28366.522,6,0.100,4921.000,0.200,959.000,0.300,96.000,0.500,14.000,1.000,2.000,5.000,0
"05/12/08","14:01:00",5701.000,"cc",28310.375,6,0.100,4656.000,0.200,936.000,0.300,97.000,0.500,10.000,1.000,2.000,5.000,0
"05/12/08","14:01:06",6313.000,"cc",28283.182,6,0.100,5127.000,0.200,1073.000,0.300,102.000,0.500,9.000,1.000,2.000,5.000,0
"05/12/08","14:01:12",7374.000,"cc",28324.506,6,0.100,6088.000,0.200,1168.000,0.300,101.000,0.500,10.000,1.000,7.000,5.000,0
"05/12/08","14:01:18",4988.000,"cc",28371.432,6,0.100,4003.000,0.200,876.000,0.300,91.000,0.500,17.000,1.000,1.000,5.000,0
"05/12/08","14:01:24",6665.000,"cc",28248.207,6,0.100,5525.000,0.200,1025.000,0.300,102.000,0.500,12.000,1.000,1.000,5.000,0
"05/12/08","14:01:30",5884.000,"cc",28356.168,6,0.100,4769.000,0.200,995.000,0.300,104.000,0.500,14.000,1.000,2.000,5.000,0
"05/12/08","14:01:36",5266.000,"cc",28299.197,6,0.100,4289.000,0.200,887.000,0.300,77.000,0.500,11.000,1.000,2.000,5.000,0
"05/12/08","14:01:42",7962.000,"cc",28325.772,6,0.100,6531.000,0.200,1245.000,0.300,156.000,0.500,29.000,1.000,1.000,5.000,0
"05/12/08","14:01:48",6270.000,"cc",28281.231,6,0.100,5175.000,0.200,989.000,0.300,87.000,0.500,15.000,1.000,4.000,5.000,0
"05/12/08","14:01:54",5415.000,"cc",28316.072,6,0.100,4387.000,0.200,922.000,0.300,91.000,0.500,12.000,1.000,3.000,5.000,0
"05/12/08","14:02:00",6826.000,"cc",28305.766,6,0.100,5607.000,0.200,1101.000,0.300,98.000,0.500,19.000,1.000,1.000,5.000,0
"05/12/08","14:02:06",6362.000,"cc",28331.582,6,0.100,5230.000,0.200,1023.000,0.300,95.000,0.500,13.000,1.000,1.000,5.000,0
"05/12/08","14:02:12",4740.000,"cc",28344.977,6,0.100,3843.000,0.200,821.000,0.300,65.000,0.500,9.000,1.000,2.000,5.000,0
"05/12/08","14:02:18",5667.000,"cc",28351.266,6,0.100,4635.000,0.200,942.000,0.300,79.000,0.500,9.000,1.000,2.000,5.000,0
"05/12/08","14:02:24",6619.000,"cc",28330.272,6,0.100,5388.000,0.200,1106.000,0.300,109.000,0.500,15.000,1.000,1.000,5.000,0
"05/12/08","14:02:30",5065.000,"cc",28287.311,6,0.100,4100.000,0.200,855.000,0.300,95.000,0.500,14.000,1.000,1.000,5.000,0
"05/12/08","14:02:36",4221.000,"cc",28330.145,6,0.100,3407.000,0.200,725.000,0.300,73.000,0.500,15.000,1.000,1.000,5.000,0
"05/12/08","14:02:42",12530.000,"cc",28284.020,6,0.100,10385.000,0.200,1936.000,0.300,185.000,0.500,20.000,1.000,4.000,5.000,0
"05/12/08","14:02:48",11967.000,"cc",28299.463,6,0.100,9928.000,0.200,1838.000,0.300,187.000,0.500,10.000,1.000,4.000,5.000,0
"05/12/08","14:02:54",7071.000,"cc",28329.170,6,0.100,5868.000,0.200,1087.000,0.300,100.000,0.500,13.000,1.000,3.000,5.000,0
"05/12/08","14:03:00",4576.000,"cc",28287.807,6,0.100,3701.000,0.200,773.000,0.300,91.000,0.500,11.000,1.000,0,5.000,0
"05/12/08","14:03:06",4030.000,"cc",28341.334,6,0.100,3283.000,0.200,678.000,0.300,57.000,0.500,9.000,1.000,3.000,5.000,0
"05/12/08","14:03:12",6719.000,"cc",28321.498,6,0.100,5576.000,0.200,1020.000,0.300,109.000,0.500,13.000,1.000,1.000,5.000,0
"05/12/08","14:03:18",6184.000,"cc",28271.225,6,0.100,5098.000,0.200,991.000,0.300,86.000,0.500,9.000,1.000,0,5.000,0
"05/12/08","14:03:24",6108.000,"cc",28337.768,6,0.100,4997.000,0.200,987.000,0.300,103.000,0.500,21.000,1.000,0,5.000,0
"05/12/08","14:03:30",3505.000,"cc",28379.781,6,0.100,2787.000,0.200,649.000,0.300,61.000,0.500,8.000,1.000,0,5.000,0
"05/12/08","14:03:36",4178.000,"cc",28343.070,6,0.100,3367.000,0.200,715.000,0.300,81.000,0.500,14.000,1.000,1.000,5.000,0
"05/12/08","14:03:42",4556.000,"cc",28265.707,6,0.100,3602.000,0.200,850.000,0.300,89.000,0.500,13.000,1.000,2.000,5.000,0
"05/12/08","14:03:48",5058.000,"cc",28351.635,6,0.100,4088.000,0.200,870.000,0.300,89.000,0.500,8.000,1.000,3.000,5.000,0
"05/12/08","14:03:54",7067.000,"cc",28307.926,6,0.100,5796.000,0.200,1152.000,0.300,106.000,0.500,10.000,1.000,3.000,5.000,0
"05/12/08","14:04:00",5863.000,"cc",28315.811,6,0.100,4712.000,0.200,999.000,0.300,130.000,0.500,17.000,1.000,5.000,5.000,0
"05/12/08","14:04:06",4701.000,"cc",28285.600,6,0.100,3833.000,0.200,774.000,0.300,87.000,0.500,5.000,1.000,2.000,5.000,0
"05/12/08","14:04:12",3754.000,"cc",28335.313,6,0.100,3008.000,0.200,670.000,0.300,69.000,0.500,6.000,1.000,1.000,5.000,0
"05/12/08","14:04:18",3599.000,"cc",28320.762,6,0.100,2915.000,0.200,627.000,0.300,50.000,0.500,6.000,1.000,1.000,5.000,0
"05/12/08","14:04:24",7192.000,"cc",28294.100,6,0.100,5935.000,0.200,1141.000,0.300,105.000,0.500,10.000,1.000,1.000,5.000,0
"05/12/08","14:04:30",11827.000,"cc",28340.523,6,0.100,9821.000,0.200,1813.000,0.300,175.000,0.500,18.000,1.000,0,5.000,0
"05/12/08","14:04:36",13567.000,"cc",28312.449,6,0.100,11346.000,0.200,2036.000,0.300,174.000,0.500,11.000,1.000,0,5.000,0
"05/12/08","14:04:42",16416.000,"cc",28308.022,6,0.100,13827.000,0.200,2384.000,0.300,183.000,0.500,22.000,1.000,0,5.000,0
"05/12/08","14:04:48",16099.000,"cc",28270.166,6,0.100,13590.000,0.200,2322.000,0.300,175.000,0.500,11.000,1.000,1.000,5.000,0
"05/12/08","14:04:54",13288.000,"cc",28373.025,6,0.100,11018.000,0.200,2111.000,0.300,151.000,0.500,8.000,1.000,0,5.000,0
"05/12/08","14:05:00",15956.000,"cc",28332.877,6,0.100,13356.000,0.200,2396.000,0.300,192.000,0.500,11.000,1.000,1.000,5.000,0
"05/12/08","14:05:06",14653.000,"cc",28254.322,6,0.100,12305.000,0.200,2155.000,0.300,174.000,0.500,19.000,1.000,0,5.000,0
"05/12/08","14:05:12",22064.000,"cc",28307.002,6,0.100,18582.000,0.200,3233.000,0.300,233.000,0.500,16.000,1.000,0,5.000,0
"05/12/08","14:05:18",25917.000,"cc",28326.561,6,0.100,21968.000,0.200,3681.000,0.300,256.000,0.500,12.000,1.000,0,5.000,0
"05/12/08","14:05:24",27634.000,"cc",28345.045,6,0.100,23408.000,0.200,3927.000,0.300,281.000,0.500,18.000,1.000,0,5.000,0
"05/12/08","14:05:30",25226.000,"cc",28299.125,6,0.100,21251.000,0.200,3692.000,0.300,261.000,0.500,22.000,1.000,0,5.000,0
"05/12/08","14:05:36",17721.000,"cc",28303.719,6,0.100,14857.000,0.200,2643.000,0.300,209.000,0.500,11.000,1.000,1.000,5.000,0
"05/12/08","14:05:42",16856.000,"cc",28308.623,6,0.100,14169.000,0.200,2476.000,0.300,192.000,0.500,17.000,1.000,2.000,5.000,0
"05/12/08","14:05:48",14195.000,"cc",28302.725,6,0.100,11901.000,0.200,2132.000,0.300,146.000,0.500,13.000,1.000,3.000,5.000,0
"05/12/08","14:05:54",24481.000,"cc",28351.158,6,0.100,20572.000,0.200,3632.000,0.300,268.000,0.500,8.000,1.000,1.000,5.000,0
"05/12/08","14:06:00",13243.000,"cc",28368.543,6,0.100,11107.000,0.200,1975.000,0.300,152.000,0.500,9.000,1.000,0,5.000,0
"05/12/08","14:06:06",11307.000,"cc",28298.346,6,0.100,9478.000,0.200,1679.000,0.300,141.000,0.500,9.000,1.000,0,5.000,0
"05/12/08","14:06:12",5703.000,"cc",28314.266,6,0.100,4709.000,0.200,904.000,0.300,79.000,0.500,10.000,1.000,1.000,5.000,0
"05/12/08","14:06:18",5023.000,"cc",28274.086,6,0.100,4058.000,0.200,889.000,0.300,68.000,0.500,8.000,1.000,0,5.000,0
"05/12/08","14:06:24",4555.000,"cc",28333.061,6,0.100,3705.000,0.200,770.000,0.300,68.000,0.500,10.000,1.000,2.000,5.000,0
"05/12/08","14:06:30",5223.000,"cc",28313.354,6,0.100,4269.000,0.200,883.000,0.300,64.000,0.500,5.000,1.000,2.000,5.000,0
"05/12/08","14:06:36",7509.000,"cc",28284.184,6,0.100,6135.000,0.200,1239.000,0.300,120.000,0.500,12.000,1.000,3.000,5.000,0
"05/12/08","14:06:42",5287.000,"cc",28364.762,6,0.100,4254.000,0.200,922.000,0.300,88.000,0.500,22.000,1.000,1.000,5.000,0
"05/12/08","14:06:48",3901.000,"cc",28321.904,6,0.100,3144.000,0.200,676.000,0.300,73.000,0.500,7.000,1.000,1.000,5.000,0
"05/12/08","14:06:54",4305.000,"cc",28304.139,6,0.100,3487.000,0.200,709.000,0.300,92.000,0.500,13.000,1.000,4.000,5.000,0
"05/12/08","14:07:00",4031.000,"cc",28320.309,6,0.100,3233.000,0.200,723.000,0.300,63.000,0.500,11.000,1.000,1.000,5.000,0
"05/12/08","14:07:06",3589.000,"cc",28287.848,6,0.100,2830.000,0.200,685.000,0.300,66.000,0.500,8.000,1.000,0,5.000,0
"05/12/08","14:07:12",4602.000,"cc",28343.611,6,0.100,3739.000,0.200,781.000,0.300,76.000,0.500,6.000,1.000,0,5.000,0
"05/12/08","14:07:18",4568.000,"cc",28326.775,6,0.100,3760.000,0.200,737.000,0.300,63.000,0.500,8.000,1.000,0,5.000,0
"05/12/08","14:07:24",5183.000,"cc",28286.725,6,0.100,4272.000,0.200,825.000,0.300,70.000,0.500,16.000,1.000,0,5.000,0
"05/12/08","14:07:30",3780.000,"cc",28282.059,6,0.100,3029.000,0.200,683.000,0.300,64.000,0.500,3.000,1.000,1.000,5.000,0
"05/12/08","14:07:36",5048.000,"cc",28318.643,6,0.100,4088.000,0.200,874.000,0.300,73.000,0.500,12.000,1.000,1.000,5.000,0
"05/12/08","14:07:42",4635.000,"cc",28324.047,6,0.100,3720.000,0.200,802.000,0.300,103.000,0.500,9.000,1.000,1.000,5.000,0
"05/12/08","14:07:48",3980.000,"cc",28303.287,6,0.100,3196.000,0.200,685.000,0.300,87.000,0.500,12.000,1.000,0,5.000,0
"05/12/08","14:07:54",4735.000,"cc",28318.457,6,0.100,3797.000,0.200,831.000,0.300,91.000,0.500,16.000,1.000,0,5.000,0
"05/12/08","14:08:00",4525.000,"cc",28293.715,6,0.100,3670.000,0.200,738.000,0.300,106.000,0.500,10.000,1.000,1.000,5.000,0
"05/12/08","14:08:06",4895.000,"cc",28361.285,6,0.100,3937.000,0.200,841.000,0.300,100.000,0.500,15.000,1.000,2.000,5.000,0
"05/12/08","14:08:12",3781.000,"cc",28326.111,6,0.100,2989.000,0.200,690.000,0.300,86.000,0.500,16.000,1.000,0,5.000,0
"05/12/08","14:08:18",3431.000,"cc",28302.904,6,0.100,2698.000,0.200,639.000,0.300,79.000,0.500,14.000,1.000,1.000,5.000,0
"05/12/08","14:08:24",3302.000,"cc",28344.897,6,0.100,2607.000,0.200,616.000,0.300,70.000,0.500,9.000,1.000,0,5.000,0
"05/12/08","14:08:30",4165.000,"cc",28306.543,6,0.100,3332.000,0.200,742.000,0.300,80.000,0.500,10.000,1.000,1.000,5.000,0
"05/12/08","14:08:36",6197.000,"cc",28338.379,6,0.100,5081.000,0.200,999.000,0.300,104.000,0.500,13.000,1.000,0,5.000,0
"05/12/08","14:08:42",4261.000,"cc",28316.826,6,0.100,3441.000,0.200,729.000,0.300,76.000,0.500,14.000,1.000,1.000,5.000,0
"05/12/08","14:08:48",4589.000,"cc",28274.518,6,0.100,3724.000,0.200,772.000,0.300,75.000,0.500,16.000,1.000,2.000,5.000,0
"05/12/08","14:08:54",3759.000,"cc",28348.051,6,0.100,2990.000,0.200,685.000,0.300,67.000,0.500,16.000,1.000,1.000,5.000,0
"05/12/08","14:09:00",3165.000,"cc",28282.488,6,0.100,2456.000,0.200,626.000,0.300,71.000,0.500,11.000,1.000,1.000,5.000,0
"05/12/08","14:09:06",2757.000,"cc",28346.479,6,0.100,2197.000,0.200,483.000,0.300,65.000,0.500,12.000,1.000,0,5.000,0
"05/12/08","14:09:12",2477.000,"cc",28322.166,6,0.100,1964.000,0.200,465.000,0.300,42.000,0.500,6.000,1.000,0,5.000,0
"05/12/08","14:09:18",2972.000,"cc",28255.867,6,0.100,2329.000,0.200,578.000,0.300,60.000,0.500,5.000,1.000,0,5.000,0
"05/12/08","14:09:24",2753.000,"cc",28355.205,6,0.100,2136.000,0.200,545.000,0.300,59.000,0.500,12.000,1.000,1.000,5.000,0
"05/12/08","14:09:30",2923.000,"cc",28331.752,6,0.100,2329.000,0.200,534.000,0.300,54.000,0.500,5.000,1.000,1.000,5.000,0
"05/12/08","14:09:36",3120.000,"cc",28346.772,6,0.100,2502.000,0.200,539.000,0.300,70.000,0.500,9.000,1.000,0,5.000,0
"05/12/08","14:09:42",3708.000,"cc",28312.389,6,0.100,2950.000,0.200,677.000,0.300,72.000,0.500,9.000,1.000,0,5.000,0
"05/12/08","14:09:48",3699.000,"cc",28257.115,6,0.100,2958.000,0.200,659.000,0.300,73.000,0.500,7.000,1.000,2.000,5.000,0
"05/12/08","14:09:54",3076.000,"cc",28310.250,6,0.100,2450.000,0.200,551.000,0.300,62.000,0.500,11.000,1.000,2.000,5.000,0
"05/12/08","14:10:00",2714.000,"cc",28352.729,6,0.100,2137.000,0.200,513.000,0.300,56.000,0.500,8.000,1.000,0,5.000,0
"05/12/08","14:10:06",3289.000,"cc",28365.650,6,0.100,2595.000,0.200,601.000,0.300,81.000,0.500,11.000,1.000,1.000,5.000,0
"05/12/08","14:10:12",3327.000,"cc",28289.438,6,0.100,2687.000,0.200,581.000,0.300,48.000,0.500,11.000,1.000,0,5.000,0
"05/12/08","14:10:18",5584.000,"cc",28305.721,6,0.100,4533.000,0.200,942.000,0.300,93.000,0.500,16.000,1.000,0,5.000,0
"05/12/08","14:10:24",3852.000,"cc",28273.594,6,0.100,3098.000,0.200,663.000,0.300,73.000,0.500,18.000,1.000,0,5.000,0
"05/12/08","14:10:30",5205.000,"cc",28309.018,6,0.100,4275.000,0.200,839.000,0.300,73.000,0.500,17.000,1.000,1.000,5.000,0
"05/12/08","14:10:36",4540.000,"cc",28318.106,6,0.100,3688.000,0.200,767.000,0.300,74.000,0.500,9.000,1.000,2.000,5.000,0
"05/12/08","14:10:42",8336.000,"cc",28357.154,6,0.100,6953.000,0.200,1264.000,0.300,104.000,0.500,14.000,1.000,1.000,5.000,0
"05/12/08","14:10:48",9489.000,"cc",28345.145,6,0.100,7876.000,0.200,1454.000,0.300,140.000,0.500,19.000,1.000,0,5.000,0
"05/12/08","14:10:54",9195.000,"cc",28277.039,6,0.100,7616.000,0.200,1419.000,0.300,133.000,0.500,25.000,1.000,2.000,5.000,0
"05/12/08","14:11:00",7400.000,"cc",28355.248,6,0.100,6148.000,0.200,1151.000,0.300,87.000,0.500,13.000,1.000,1.000,5.000,0
"05/12/08","14:11:06",9843.000,"cc",28314.156,6,0.100,8213.000,0.200,1478.000,0.300,137.000,0.500,15.000,1.000,0,5.000,0
"05/12/08","14:11:12",8766.000,"cc",28279.500,6,0.100,7394.000,0.200,1266.000,0.300,94.000,0.500,12.000,1.000,0,5.000,0
"05/12/08","14:11:18",6416.000,"cc",28314.918,6,0.100,5349.000,0.200,981.000,0.300,74.000,0.500,12.000,1.000,0,5.000,0
"05/12/08","14:11:24",7829.000,"cc",28303.367,6,0.100,6544.000,0.200,1162.000,0.300,115.000,0.500,8.000,1.000,0,5.000,0
"05/12/08","14:11:30",6599.000,"cc",28309.107,6,0.100,5478.000,0.200,1028.000,0.300,85.000,0.500,8.000,1.000,0,5.000,0
"05/12/08","14:11:36",8215.000,"cc",28331.988,6,0.100,6824.000,0.200,1253.000,0.300,126.000,0.500,12.000,1.000,0,5.000,0
"05/12/08","14:11:42",7419.000,"cc",28272.545,6,0.100,6172.000,0.200,1122.000,0.300,110.000,0.500,15.000,1.000,0,5.000,0
"05/12/08","14:11:48",8365.000,"cc",28358.346,6,0.100,6988.000,0.200,1240.000,0.300,126.000,0.500,10.000,1.000,1.000,5.000,0
"05/12/08","14:11:54",8227.000,"cc",28318.961,6,0.100,6906.000,0.200,1202.000,0.300,106.000,0.500,13.000,1.000,0,5.000,0
"05/12/08","14:12:00",12294.000,"cc",28297.078,6,0.100,10366.000,0.200,1758.000,0.300,148.000,0.500,22.000,1.000,0,5.000,0
"05/12/08","14:12:06",11391.000,"cc",28312.846,6,0.100,9616.000,0.200,1639.000,0.300,125.000,0.500,11.000,1.000,0,5.000,0
"05/12/08","14:12:12",12523.000,"cc",28303.539,6,0.100,10560.000,0.200,1783.000,0.300,166.000,0.500,12.000,1.000,2.000,5.000,0
"05/12/08","14:12:18",10044.000,"cc",28310.885,6,0.100,8391.000,0.200,1515.000,0.300,125.000,0.500,13.000,1.000,0,5.000,0
"05/12/08","14:12:24",9550.000,"cc",28380.961,6,0.100,8030.000,0.200,1388.000,0.300,119.000,0.500,13.000,1.000,0,5.000,0
"05/12/08","14:12:30",7521.000,"cc",28303.900,6,0.100,6231.000,0.200,1162.000,0.300,106.000,0.500,22.000,1.000,0,5.000,0
"05/12/08","14:12:36",10975.000,"cc",28271.424,6,0.100,9260.000,0.200,1581.000,0.300,122.000,0.500,12.000,1.000,0,5.000,0
"05/12/08","14:12:42",16211.000,"cc",28324.488,6,0.100,13740.000,0.200,2292.000,0.300,166.000,0.500,12.000,1.000,1.000,5.000,0
"05/12/08","14:12:48",7897.000,"cc",28350.551,6,0.100,6644.000,0.200,1145.000,0.300,94.000,0.500,14.000,1.000,0,5.000,0
"05/12/08","14:12:54",8573.000,"cc",28298.203,6,0.100,7181.000,0.200,1253.000,0.300,121.000,0.500,16.000,1.000,2.000,5.000,0
"05/12/08","14:13:00",8304.000,"cc",28331.576,6,0.100,6906.000,0.200,1267.000,0.300,117.000,0.500,13.000,1.000,1.000,5.000,0
"05/12/08","14:13:06",15009.000,"cc",28221.148,6,0.100,12628.000,0.200,2184.000,0.300,178.000,0.500,18.000,1.000,1.000,5.000,0
"05/12/08","14:13:12",15720.000,"cc",28340.254,6,0.100,13272.000,0.200,2234.000,0.300,191.000,0.500,22.000,1.000,1.000,5.000,0
"05/12/08","14:13:18",15985.000,"cc",28353.523,6,0.100,13463.000,0.200,2324.000,0.300,177.000,0.500,20.000,1.000,1.000,5.000,0
"05/12/08","14:13:24",10269.000,"cc",28332.357,6,0.100,8579.000,0.200,1547.000,0.300,127.000,0.500,16.000,1.000,0,5.000,0
"05/12/08","14:13:30",8386.000,"cc",28277.867,6,0.100,7026.000,0.200,1249.000,0.300,96.000,0.500,14.000,1.000,1.000,5.000,0
"05/12/08","14:13:36",7935.000,"cc",28356.117,6,0.100,6694.000,0.200,1124.000,0.300,103.000,0.500,14.000,1.000,0,5.000,0
"05/12/08","14:13:42",7702.000,"cc",28324.684,6,0.100,6432.000,0.200,1142.000,0.300,114.000,0.500,14.000,1.000,0,5.000,0
"05/12/08","14:13:48",15212.000,"cc",28323.902,6,0.100,12884.000,0.200,2139.000,0.300,166.000,0.500,23.000,1.000,0,5.000,0
"05/12/08","14:13:54",17204.000,"cc",28366.455,6,0.100,14550.000,0.200,2449.000,0.300,185.000,0.500,19.000,1.000,1.000,5.000,0
"05/12/08","14:14:00",11355.000,"cc",28303.154,6,0.100,9613.000,0.200,1597.000,0.300,133.000,0.500,12.000,1.000,0,5.000,0
"05/12/08","14:14:06",9743.000,"cc",28263.168,6,0.100,8213.000,0.200,1406.000,0.300,116.000,0.500,8.000,1.000,0,5.000,0
"05/12/08","14:14:12",10600.000,"cc",28313.330,6,0.100,8951.000,0.200,1523.000,0.300,115.000,0.500,11.000,1.000,0,5.000,0
"05/12/08","14:14:18",8036.000,"cc",28358.961,6,0.100,6743.000,0.200,1198.000,0.300,88.000,0.500,6.000,1.000,1.000,5.000,0
"05/12/08","14:14:24",10478.000,"cc",28292.699,6,0.100,8860.000,0.200,1501.000,0.300,109.000,0.500,6.000,1.000,2.000,5.000,0
"05/12/08","14:14:30",9444.000,"cc",28301.508,6,0.100,7878.000,0.200,1437.000,0.300,112.000,0.500,17.000,1.000,0,5.000,0
"05/12/08","14:14:36",8989.000,"cc",28355.223,6,0.100,7586.000,0.200,1295.000,0.300,95.000,0.500,13.000,1.000,0,5.000,0
"05/12/08","14:14:42",8687.000,"cc",28292.809,6,0.100,7284.000,0.200,1291.000,0.300,99.000,0.500,12.000,1.000,1.000,5.000,0
"05/12/08","14:14:48",14180.000,"cc",28270.703,6,0.100,12005.000,0.200,2007.000,0.300,155.000,0.500,13.000,1.000,0,5.000,0
"05/12/08","14:14:54",7875.000,"cc",28326.971,6,0.100,6605.000,0.200,1171.000,0.300,85.000,0.500,13.000,1.000,1.000,5.000,0
"05/12/08","14:15:00",8582.000,"cc",28329.522,6,0.100,7106.000,0.200,1339.000,0.300,123.000,0.500,14.000,1.000,0,5.000,0
"05/12/08","14:15:06",5984.000,"cc",28306.627,6,0.100,4940.000,0.200,958.000,0.300,75.000,0.500,11.000,1.000,0,5.000,0
"05/12/08","14:15:12",6871.000,"cc",28318.404,6,0.100,5725.000,0.200,1051.000,0.300,84.000,0.500,11.000,1.000,0,5.000,0
"05/12/08","14:15:18",7620.000,"cc",28317.623,6,0.100,6356.000,0.200,1185.000,0.300,72.000,0.500,6.000,1.000,1.000,5.000,0
"05/12/08","14:15:24",5103.000,"cc",28378.910,6,0.100,4142.000,0.200,888.000,0.300,64.000,0.500,9.000,1.000,0,5.000,0
"05/12/08","14:15:30",8732.000,"cc",28295.049,6,0.100,7375.000,0.200,1250.000,0.300,99.000,0.500,8.000,1.000,0,5.000,0
"05/12/08","14:15:36",8766.000,"cc",28257.836,6,0.100,7356.000,0.200,1297.000,0.300,97.000,0.500,16.000,1.000,0,5.000,0
"05/12/08","14:15:42",8016.000,"cc",28347.451,6,0.100,6675.000,0.200,1244.000,0.300,79.000,0.500,16.000,1.000,2.000,5.000,0
"05/12/08","14:15:48",10434.000,"cc",28363.447,6,0.100,8767.000,0.200,1549.000,0.300,104.000,0.500,14.000,1.000,0,5.000,0
"05/12/08","14:15:54",11387.000,"cc",28331.523,6,0.100,9482.000,0.200,1754.000,0.300,139.000,0.500,11.000,1.000,1.000,5.000,0
"05/12/08","14:16:00",10751.000,"cc",28318.955,6,0.100,8990.000,0.200,1621.000,0.300,127.000,0.500,13.000,1.000,0,5.000,0
"05/12/08","14:16:06",9437.000,"cc",28288.832,6,0.100,7875.000,0.200,1406.000,0.300,139.000,0.500,16.000,1.000,1.000,5.000,0
"05/12/08","14:16:12",7968.000,"cc",28321.967,6,0.100,6596.000,0.200,1252.000,0.300,107.000,0.500,12.000,1.000,1.000,5.000,0
"05/12/08","14:16:18",12448.000,"cc",28358.941,6,0.100,10509.000,0.200,1755.000,0.300,164.000,0.500,19.000,1.000,1.000,5.000,0
"05/12/08","14:16:24",12585.000,"cc",28269.332,6,0.100,10566.000,0.200,1825.000,0.300,179.000,0.500,15.000,1.000,0,5.000,0
"05/12/08","14:16:30",10879.000,"cc",28339.500,6,0.100,9096.000,0.200,1601.000,0.300,153.000,0.500,28.000,1.000,1.000,5.000,0
"05/12/08","14:16:36",7914.000,"cc",28339.285,6,0.100,6629.000,0.200,1172.000,0.300,101.000,0.500,12.000,1.000,0,5.000,0
"05/12/08","14:16:42",10234.000,"cc",28348.617,6,0.100,8549.000,0.200,1541.000,0.300,123.000,0.500,20.000,1.000,1.000,5.000,0
"05/12/08","14:16:48",8594.000,"cc",28292.195,6,0.100,7193.000,0.200,1279.000,0.300,104.000,0.500,17.000,1.000,1.000,5.000,0
"05/12/08","14:16:54",8441.000,"cc",28304.762,6,0.100,7058.000,0.200,1250.000,0.300,118.000,0.500,14.000,1.000,1.000,5.000,0
"05/12/08","14:17:00",6503.000,"cc",28276.080,6,0.100,5430.000,0.200,964.000,0.300,93.000,0.500,13.000,1.000,3.000,5.000,0
"05/12/08","14:17:06",4483.000,"cc",28311.102,6,0.100,3681.000,0.200,722.000,0.300,64.000,0.500,14.000,1.000,2.000,5.000,0
"05/12/08","14:17:12",3372.000,"cc",28357.516,6,0.100,2663.000,0.200,622.000,0.300,76.000,0.500,11.000,1.000,0,5.000,0
"05/12/08","14:17:18",3852.000,"cc",28302.777,6,0.100,3066.000,0.200,705.000,0.300,68.000,0.500,11.000,1.000,2.000,5.000,0
"05/12/08","14:17:24",4316.000,"cc",28308.143,6,0.100,3554.000,0.200,675.000,0.300,67.000,0.500,18.000,1.000,2.000,5.000,0
"05/12/08","14:17:30",4437.000,"cc",28299.873,6,0.100,3656.000,0.200,690.000,0.300,73.000,0.500,16.000,1.000,2.000,5.000,0
"05/12/08","14:17:36",4621.000,"cc",28342.449,6,0.100,3729.000,0.200,812.000,0.300,64.000,0.500,15.000,1.000,1.000,5.000,0
"05/12/08","14:17:42",4431.000,"cc",28316.551,6,0.100,3632.000,0.200,712.000,0.300,74.000,0.500,11.000,1.000,2.000,5.000,0
"05/12/08","14:17:48",4091.000,"cc",28339.385,6,0.100,3264.000,0.200,744.000,0.300,75.000,0.500,8.000,1.000,0,5.000,0
"05/12/08","14:17:54",3297.000,"cc",28355.723,6,0.100,2619.000,0.200,614.000,0.300,55.000,0.500,9.000,1.000,0,5.000,0
"05/12/08","14:18:00",3110.000,"cc",28323.607,6,0.100,2498.000,0.200,555.000,0.300,48.000,0.500,8.000,1.000,1.000,5.000,0
"05/12/08","14:18:06",4928.000,"cc",28293.891,6,0.100,3964.000,0.200,868.000,0.300,86.000,0.500,8.000,1.000,2.000,5.000,0
"05/12/08","14:18:12",3645.000,"cc",28335.512,6,0.100,2899.000,0.200,662.000,0.300,70.000,0.500,13.000,1.000,1.000,5.000,0
"05/12/08","14:18:18",3386.000,"cc",28292.232,6,0.100,2652.000,0.200,647.000,0.300,74.000,0.500,12.000,1.000,1.000,5.000,0